Location: Blackwater Beach
(38.5801°N, 75.1577°W)
Time: 03:41:39
(UTC+00:00)

Cosmos 2297 Rocket - Pass Details

Date: 24 May 2026
Orbit: 838 x 842 km, 71.0° (Epoch: 9 June)

Event Time Altitude Azimuth Distance (km) Brightness Sun altitude
Exits shadow 04:08:06 10° 256° (WSW) 2,488 4.6 -29.5°
Reaches altitude 10° 04:08:14 10° 257° (WSW) 2,450 4.6 -29.5°
Maximum altitude 04:12:24 21° 306° (NW) 1,805 4.3 -29.7°
Drops below altitude 10° 04:16:36 10° 354° (N) 2,462 5.5 -29.9°
Sets 04:19:41 0° 10° (N) 3,401 6.4 -30.0°
